Siga o Apolo11 no Facebook   Siga o Apolo11 no Twiiter
Ciência, Espaço e Tecnologia




Elementos Keplerianos formato Two Line

Para que um programa de rastreio possa saber a localização exata de qualquer satélite no espaço e assim poder rastreá-lo corretamente, é necessário que ele seja carregado com algumas informações.

Estas informações são chamadas de Elementos Orbitais ou Elementos Keplerianos e consistem em 2 linhas com dezenas de números. Esses números nada mais são que os parâmetros orbitais do satélite, tais como altitude, atitude, excentricidade da órbita, número de órbitas por dia, etc.

Com base nestas informações o programa é capaz de determinar com bastante exatidão a posição de qualquer satélite no espaço e nos informar em qual horário este estará dentro do alcance de nossa estação. Para que isso seja feito com precisão é necessário que os dados estejam sempre bem atualizadas.

Devido aos parâmetros orbitais serem descritos em 2 linhas, estes formato é também conhecido internacionalmente por 2line (leia-se Two Line”).

Para atualizar seu programa de rastreio basta copiar os dados disponibilizados e fornece-los ao programa. Nossos elementos orbitais são atualizados diariamente.

NOAATodos os satélites ambientais da série NOAA
30 DiasSatélites lançados nos últimos 30 dias
ISSSatélites e foguetes relacionados à Estação Espacial Internacional
HAMSatélites construídos por radiomadores
CUBESatélites tipo cubo, com 10 centímetros de lado
METEOSatélites voltados à previsão do tempo
EDUSatélites construídos e operados por universidades
VIS100 satélites mais brilhantes que podem ser vistos a olho nú



Satélites Educacionais
SAUDISAT 1C             
1 27607U 02058C   21214.44856838  .00000034  00000-0  25366-4 0  9996
2 27607  64.5540 197.6931 0046259   6.2420 353.9248 14.75770971  1298
SAUDISAT 2              
1 28371U 04025F   21214.84251286 -.00000146  00000-0 -23109-4 0  9990
2 28371  98.3300 166.8735 0026179   7.7794 352.3770 14.54437354906979
SAUDISAT 3              
1 31118U 07012B   21214.78956162  .00000023  00000-0  11996-4 0  9993
2 31118  97.9236 165.4123 0016211 127.8942 232.3732 14.69211364766365
PISAT                   
1 41784U 16059B   21214.31375994  .00000073  00000-0  22856-4 0  9993
2 41784  97.9636 264.2922 0033351  97.5625 262.9369 14.63644716259007
FLYING LAPTOP           
1 42831U 17042G   21214.85845601  .00000643  00000-0  69701-4 0  9999
2 42831  97.4653  82.1520 0013903 359.7593   0.3621 14.91326751220600
SALSAT                  
1 46495U 20068K   21214.58280433  .00000272  00000-0  24459-4 0  9996
2 46495  97.6930 151.8093 0015778 278.4252  81.5189 15.03493715 46267


IMAGENS DE SATÉLITES !    Clique e conheça nosso Vídeo Workshop de sensoriamento remoto e imagens meteorológicas.
Apolo11.com - Todos os direitos reservados - 2001 - 2021
Política de Privacidade

"Ainda que eu fale a língua dos homens e dos anjos, se não tiver amor, nada serei" - 1 Coríntios 13,1